User: anonymous   Login
Location: Bonny Doon Airfield
(37.0704°N, 122.1252°W)
Time: 01:42:27
(UTC-08:00)
Language:

ISS - Orbit

View from above orbital plane
View from above orbital plane
View from above satellite
View from above satellite

Ground track
Ground track

The orbit data is extracted from the following two-line orbital elements,

1 25544U 98067A   17351.29389999  .00016717  00000-0  10270-3 0  9035
2 25544  51.6380 205.5137 0002811 256.4363 103.6477 15.54173129 10220
Epoch (UTC): 17 December 2017 07:03:12
Eccentricity: 0.0002811
inclination: 51.6380°
perigee height: 402 km
apogee height: 406 km
right ascension of ascending node: 205.5137°
argument of perigee: 256.4363°
revolutions per day: 15.54173129
mean anomaly at epoch: 103.6477°
orbit number at epoch: 1022

The dashed part of the orbit path shows where the satellite is in the earth's shadow,  

DLR